Regional Weather Roundup
Issued by NWS

Home | Current Version | Previous Version | Graphics & Text | Print | Product List | Glossary On
Versions: 1 2 3 4 5 6 7 8 9 10 11 12 13 14 15 16 17 18 19 20 21 22 23 24 25 26 27 28 29 30 31 32 33 34 35 36 37 38 39 40 41 42 43 44 45 46 47 48 49 50
000
ASUS43 KMPX 070201
RWRMN
WEATHER ROUNDUP FOR MINNESOTA
NATIONAL WEATHER SERVICE TWIN CITIES/CHANHASSEN MN
800 PM CST TUE DEC 06 2016


NOTE: "FAIR" INDICATES FEW OR NO CLOUDS BELOW 12,000 FEET WITH NO
SIGNIFICANT WEATHER AND/OR OBSTRUCTIONS TO VISIBILITY. N/A MEANS
CURRENT SKY AND/OR WEATHER CONDITIONS ARE NOT AVAILABLE.

MNZ060>063-068>070-070300-
   Twin Cities Metro

CITY           SKY/WX    TMP DP  RH WIND       PRES   REMARKS
TWIN CITIES    FLURRIES  20  10  65 W21G33    29.78R WCI   4
ST PAUL        CLOUDY    21  12  68 W18G37    29.80R WCI   6
CRYSTAL        CLOUDY    20  10  65 W17G29    29.76R WCI   5
BLAINE         FLURRIES  21  16  79 W20G28    29.74R WCI   6
LAKEVILLE      CLOUDY    18  12  79 W21G30    29.81R WCI   1
EDEN PRAIRIE   FLURRIES  19  10  68 W18G32    29.78R WCI   4
SOUTH ST PAUL  CLOUDY    22  11  64 W22G29    29.79R WCI   6
LAKE ELMO      FLURRIES  23  14  68 SW15G25   29.77R WCI  10
$$
MNZ001>005-007-008-013>017-022>024-027-028-070300-
   Northwest Minnesota

CITY           SKY/WX    TMP DP  RH WIND       PRES   REMARKS
BEMIDJI        LGT SNOW  22  19  89 W15G22    29.47S WCI   8
HALLOCK        SNOW      23  21  93 NW36G47   29.53R VSB 1/2 WCI   4
ROSEAU         LGT SNOW  21  18  86 CALM      29.45R
WARROAD        CLOUDY    21  18  86 SW3       29.44S
THIEF RVR FALL LGT SNOW  21  19  92 NW24G37   29.52  VSB 1   WCI   4
CROOKSTON      SNOW      19  18  93 NW38      29.59R VSB 1/2 WCI  -1
FOSSTON        LGT SNOW  18  16  93 W18G30    29.54R WCI   2
DETROIT LAKES  LGT SNOW  18  14  86 W23G33    29.62R WCI   0
MOORHEAD       MIX PCPN  16  10  79 W31G43    29.70R WCI  -5
PARK RAPIDS    LGT SNOW  20  13  74 W26G32    29.54R WCI   2
$$
MNZ006-009>011-018-025>026-070300-
   North Central Minnesota

CITY           SKY/WX    TMP DP  RH WIND       PRES   REMARKS
BAUDETTE       CLOUDY    21  18  88 CALM      29.43R
FLAG ISLAND    CLOUDY    21  19  93 W6        29.42S WCI  14
INTL FALLS     LGT SNOW  20  16  84 CALM      29.41R VSB 1
WASKISH        FLURRIES  21  19  93 W12       29.45R WCI   9
BIG FORK       CLOUDY    23  19  86 W7        29.41R WCI  15
LONGVILLE      LGT SNOW  21  19  93 W13       29.50R WCI   9
GRAND RAPIDS   FLURRIES  23  19  85 W15G23    29.46R WCI  10
CRANE LAKE     LGT SNOW  18  18 100 CALM      29.43S
ORR            FLURRIES  19  16  86 CALM      29.37S
COOK           LGT SNOW  19  18  93 S3        29.40S
$$
MNZ012-019>021-037-070300-
   Northeast Minnesota

CITY           SKY/WX    TMP DP  RH WIND       PRES   REMARKS
DULUTH         LGT SNOW  20  16  84 SW20      29.47R FOG     WCI   4
ELY            LGT SNOW  19  18  93 S5        29.41F WCI  13
HIBBING        LGT SNOW  20  18  92 SW8       29.41R FOG     WCI  10
EVELETH        MIX PCPN  20  17  87 SW12      29.42S WCI   8
DULUTH HARBOR  LGT SNOW  25  19  80 SW21G30   29.54R WCI  10
TWO HARBORS    LGT SNOW  25  18  74 SW17G26   29.47S WCI  11
SILVER BAY     FLURRIES  21  18  86 SW13G22   29.46F WCI   9
GRAND MARAIS     N/A     30  25  81 SW26      29.51F WCI  16
G MARAIS ARPRT LGT SNOW  19  16  86 S12G17    29.44F VSB 1   WCI   7
$$
MNZ029>031-032-039>041-046>048-054>057-064-070300-
   West Central Minnesota

CITY           SKY/WX    TMP DP  RH WIND       PRES   REMARKS
FERGUS FALLS   LGT SNOW  14  12  92 W31G40    29.78R VSB 3/4 WCI  -7
WHEATON        LGT SNOW  16  12  86 W25G35    29.83R WCI  -3
MORRIS         FLURRIES  16  10  79 W31       29.78R WCI  -5
ALEXANDRIA     LGT SNOW  15  12  88 W29G38    29.71R VSB 1   WCI  -5
ELBOW LAKE     LGT SNOW  15  13  92 NW18G32   29.76R VSB 1   WCI  -2
WADENA         LGT SNOW  16  12  86 W22G32    29.61R WCI  -2
GLENWOOD       LGT SNOW  16  12  86 W28G40    29.72R VSB 1   WCI  -4
APPLETON       FLURRIES  18  10  73 W28G33    29.83  WCI  -1
BENSON         FLURRIES  16   9  73 NW25G33   29.80R WCI  -3
ORTONVILLE     CLOUDY    16   7  67 W24G33    29.84R WCI  -3
MADISON        CLEAR     18   9  68 W26G40    29.88R WCI  -1
WILLMAR        FLURRIES  18  12  79 W26G36    29.81R WCI  -1
$$
MNZ033>034-036-042>043-049>051-058-059-070300-
   Central Minnesota

CITY           SKY/WX    TMP DP  RH WIND       PRES   REMARKS
ST CLOUD       LGT SNOW  18  12  77 W23G31    29.72R WCI   0
PAYNESVILLE    LGT SNOW  17  12  81 W23G35    29.76R WCI  -1
AITKIN         FLURRIES  21  12  68 SW14G21   29.53R WCI   8
PINE RIVER     CLOUDY    19  16  86 W9G20     29.58R WCI   9
BRAINERD       LGT SNOW  18  13  80 W22G32    29.58R WCI   1
STAPLES        LGT SNOW  16  12  86 W20G28    29.61R WCI  -1
LONG PRAIRIE   LGT SNOW  18  12  79 SW21G29   29.68R WCI   1
LITTLE FALLS   LGT SNOW  19  12  73 W20G26    29.66R WCI   4
LITCHFIELD     FLURRIES  18  12  79 W22G29    29.78R WCI   0
BUFFALO        FLURRIES  19  12  74 SW15G31   29.77R WCI   5
MAPLE LAKE     LGT SNOW  20  15  81 W18G26    29.76R WCI   5
HUTCHINSON     CLOUDY    17  12  80 W28G36    29.81R WCI  -2
$$
MNZ037-044-045-052-053-070300-
   East Central Minnesota

CITY           SKY/WX    TMP DP  RH WIND       PRES   REMARKS
PRINCETON      FLURRIES  19  12  73 SW20G28   29.70R WCI   4
MORA           FLURRIES  19  12  73 W14G29    29.66R WCI   6
CAMBRIDGE      FLURRIES  21  12  68 SW14G28   29.68R WCI   8
RUSH CITY      CLOUDY    19  14  79 SW20G33   29.68R WCI   4
MOOSE LAKE     LGT SNOW  21  18  86 SW12G18   29.54R WCI   9
HINCKLEY       FLURRIES  21  16  79 SW20G29   29.63R WCI   6
CLOQUET        LGT SNOW  19  16  86 SW12G17   29.50R WCI   7
MCGREGOR       CLOUDY    21  18  86 SW10G22   29.53R WCI  10
$$
MNZ071>073-080-081-089-090-097-098-070300-
   Southwest Minnesota

CITY           SKY/WX    TMP DP  RH WIND       PRES   REMARKS
MONTEVIDEO     CLOUDY    16   9  73 NW17G31   29.86R WCI   0
GRANITE FALLS  CLEAR     17  10  74 W31G38    29.88R WCI  -3
CANBY          CLEAR     15   8  74 NW24G35   29.90R WCI  -4
MARSHALL       CLEAR     13   6  74 W28G39    29.88R WCI  -8
REDWOOD FALLS  PTCLDY    16   6  65 W25G39    29.86R WCI  -3
OLIVIA         CLEAR     18  10  73 W26G33    29.83R WCI  -1
PIPESTONE      PTCLDY    12   7  79 W29G36    29.90R WCI  -9
WINDOM         FLURRIES  16   9  73 W20G36    29.89R WCI  -1
WORTHINGTON    FLURRIES  14   8  77 W24G33    29.92R WCI  -5
JACKSON        CLOUDY    16  10  79 W21G32    29.91R WCI  -2
TRACY          CLEAR     15   9  76 W16G30    29.88R WCI  -1
SLAYTON        CLEAR     12   8  81 W29G37    29.88R WCI  -9
$$
MNZ065>067-074>077-082>085-091>093-070300-
   South Central Minnesota

CITY           SKY/WX    TMP DP  RH WIND       PRES   REMARKS
MANKATO        FLURRIES  17  10  74 W23       29.87R WCI  -1
NEW ULM        MOCLDY    16   9  73 W24G33    29.87R WCI  -3
ST JAMES       CLOUDY    18  10  73 W23       29.91R WCI   0
GLENCOE        CLOUDY    18  13  80 W21G33    29.81R WCI   1
FARIBAULT      CLOUDY    19  10  68 W20G29    29.85R WCI   4
OWATONNA       CLOUDY    19  12  73 W25G31    29.85R WCI   2
WASECA         CLOUDY    19  12  73 W25       29.88R WCI   2
ALBERT LEA     PTCLDY    21  16  79 W16G24    29.87R WCI   7
$$
MNZ078>079-086>088-094>096-070300-
   Southeast Minnesota

CITY           SKY/WX    TMP DP  RH WIND       PRES   REMARKS
ROCHESTER      LGT SNOW  19  13  77 W28G38    29.82R WCI   1
RED WING       CLOUDY    21  10  63 W25G36    29.80R WCI   4
STANTON        MOCLDY    21  12  67 W20G30    29.81R WCI   6
DODGE CENTER   FLURRIES  19  12  73 W26G32    29.82R WCI   1
WINONA         CLOUDY    27  18  69 W10G22      N/A  WCI  17
AUSTIN         FLURRIES  19  12  73 W23G32    29.87R WCI   2
PRESTON        FLURRIES  21  14  76 W21G30    29.85R WCI   5
$$
ABBREVIATIONS USED IN REMARKS
   TC - TEMPERATURES IN CELSIUS
  WCI - WIND CHILL INDEX
   HX - HEAT INDEX
  VSB - VISIBILITY
$$




USA.gov is the U.S. government's official web portal to all federal, state and local government web resources and services.